�N����,����,����,����,����,�C��,���x,�~����,�S�V����,�ő�u�ԕ���,,,,,
,,,,,,,,,����,����,����,�N��,,
yyyy/mm/dd,hh:mm:ss,(16),16����,m/s,��,%,mm,KW/�u,(16),16����,m/s,Time,,
2017/8/1,1:00:00,3,���k��,1.6,17.4,100,0.5,0,3,���k��,2.5,57,,
2017/8/1,2:00:00,2,�k��,0.5,17.2,100,0.5,0,3,���k��,3.4,21,,
2017/8/1,3:00:00,2,�k��,1.8,17.2,100,1,0,3,���k��,4.2,30,,
2017/8/1,4:00:00,16,�É�,0,17.3,100,0,0,1,�k�k��,2.6,7,,
2017/8/1,5:00:00,3,���k��,2,17.1,100,0,0.01,3,���k��,4.7,35,,
2017/8/1,6:00:00,14,�k��,1,17.5,99.9,0,0.04,14,�k��,2,53,,
2017/8/1,7:00:00,16,�É�,0,18.1,99.4,0,0.06,16,�k,1.7,13,,
2017/8/1,8:00:00,16,�É�,0,18.4,96.8,0,0.13,14,�k��,1.9,37,,
2017/8/1,9:00:00,4,��,2.2,18.3,97.2,0,0.13,3,���k��,3.4,52,,
2017/8/1,10:00:00,1,�k�k��,1.9,19.9,93.5,0,0.33,5,���쓌,4.2,1,,
2017/8/1,11:00:00,3,���k��,0.9,21.3,86.9,0,0.5,3,���k��,3.6,22,,
2017/8/1,12:00:00,5,���쓌,1.9,22.2,82.4,0.5,0.56,4,��,3.4,57,,
2017/8/1,13:00:00,5,���쓌,2.6,22,81.5,0,0.61,4,��,3.7,57,,
2017/8/1,14:00:00,4,��,1.6,23.5,76.2,0,0.75,4,��,3.6,10,,
2017/8/1,15:00:00,5,���쓌,2.6,22.6,78.8,0,0.75,5,���쓌,4.6,40,,
2017/8/1,16:00:00,6,�쓌,2.4,20.8,82.5,0,0.59,5,���쓌,4.6,22,,
2017/8/1,17:00:00,6,�쓌,2.2,18.9,89.4,0,0.3,5,���쓌,4.1,11,,
2017/8/1,18:00:00,6,�쓌,0.3,17.9,94.4,0,0.08,8,��,2.9,5,,
2017/8/1,19:00:00,16,�É�,0,17.8,97,0,0.01,11,���쐼,1.3,37,,
2017/8/1,20:00:00,16,�É�,0,18,97.1,0,0,10,�쐼,1.5,20,,
2017/8/1,21:00:00,16,�É�,0,18,97.5,0,0,16,�É�,0,0,,
2017/8/1,22:00:00,16,�É�,0,17.4,98.8,0,0,16,�É�,0,0,,
2017/8/1,23:00:00,16,�É�,0,17.5,99.1,0,0,16,�É�,0,0,,
2017/8/1,0:00:00,16,�É�,0,16.6,98.1,0,0,6,�쓌,1.9,38,,
2017/8/2,1:00:00,6,�쓌,0.9,16,99.4,0,0,5,���쓌,2.2,48,,
2017/8/2,2:00:00,5,���쓌,1.9,15.6,100,0,0,5,���쓌,2.5,54,,
2017/8/2,3:00:00,10,�쐼,0.3,15.6,100,0,0,10,�쐼,1.4,52,,
2017/8/2,4:00:00,16,�É�,0,15.6,100,0,0,10,�쐼,1.8,39,,
2017/8/2,5:00:00,16,�É�,0,15.8,100,0,0,9,��쐼,0.6,57,,
2017/8/2,6:00:00,6,�쓌,0.3,16.1,100,0,0.02,5,���쓌,1.7,57,,
2017/8/2,7:00:00,5,���쓌,0.5,16.3,100,0,0.06,5,���쓌,1.9,53,,
2017/8/2,8:00:00,16,�É�,0,17.2,100,0,0.11,16,�É�,0,0,,
2017/8/2,9:00:00,5,���쓌,0.4,18.4,96.8,0,0.2,5,���쓌,1.9,51,,
2017/8/2,10:00:00,6,�쓌,1.5,18.9,91.8,0,0.35,6,�쓌,2.9,53,,
2017/8/2,11:00:00,5,���쓌,1.9,20.5,84.9,0,0.69,5,���쓌,3.3,57,,
2017/8/2,12:00:00,5,���쓌,2.7,20.2,88.5,0,0.83,5,���쓌,5.1,18,,
2017/8/2,13:00:00,5,���쓌,3.3,20,80.3,0,0.89,5,���쓌,5.6,47,,
2017/8/2,14:00:00,7,��쓌,3.2,18.4,86.8,0,0.85,6,�쓌,5,50,,
2017/8/2,15:00:00,7,��쓌,2.6,18.4,89.8,0,0.55,6,�쓌,5.7,27,,
2017/8/2,16:00:00,8,��,2.3,19.3,80.5,0,0.56,6,�쓌,4.6,12,,
2017/8/2,17:00:00,8,��,1.9,17.6,87.5,0,0.29,7,��쓌,4.2,36,,
2017/8/2,18:00:00,6,�쓌,0.9,17.2,89.9,0,0.06,8,��,2.5,4,,
2017/8/2,19:00:00,5,���쓌,1.5,16.6,94.9,0,0.01,7,��쓌,3,11,,
2017/8/2,20:00:00,5,���쓌,1.2,16.4,96.1,0,0,5,���쓌,2.2,4,,
2017/8/2,21:00:00,6,�쓌,1.7,16.2,94.1,0,0,6,�쓌,4.3,22,,
2017/8/2,22:00:00,6,�쓌,1.3,16.1,94.4,0,0,6,�쓌,2.6,4,,
2017/8/2,23:00:00,6,�쓌,1.2,15.8,94.2,0,0,7,��쓌,2.8,27,,
2017/8/2,0:00:00,5,���쓌,1.9,15.7,94.8,0,0,5,���쓌,2.8,51,,
2017/8/3,1:00:00,16,�É�,0,15.3,96.7,0,0,5,���쓌,3.1,27,,
2017/8/3,2:00:00,5,���쓌,1.5,15.1,97.5,0,0,5,���쓌,2.7,48,,
2017/8/3,3:00:00,5,���쓌,1.4,15.2,95.9,0,0,5,���쓌,2.8,12,,
2017/8/3,4:00:00,5,���쓌,1,15.2,96,0,0,4,��,2.5,21,,
2017/8/3,5:00:00,16,�É�,0,15.3,94.3,0,0.01,5,���쓌,2,24,,
2017/8/3,6:00:00,6,�쓌,1,15.3,94.6,0,0.03,6,�쓌,2.2,51,,
2017/8/3,7:00:00,6,�쓌,1.6,15.7,93.3,0,0.07,5,���쓌,2.5,57,,
2017/8/3,8:00:00,5,���쓌,2.4,16.5,91.2,0,0.17,4,��,3.6,34,,
2017/8/3,9:00:00,5,���쓌,1.9,16.3,91.2,0,0.28,5,���쓌,3.2,37,,
2017/8/3,10:00:00,5,���쓌,2,16.7,89.6,0,0.31,6,�쓌,3.6,35,,
2017/8/3,11:00:00,6,�쓌,2.5,16.5,89.7,0,0.32,6,�쓌,4.3,52,,
2017/8/3,12:00:00,6,�쓌,2.1,16.8,87.2,0,0.35,6,�쓌,4,4,,
2017/8/3,13:00:00,7,��쓌,2.3,17.8,84.1,0,0.53,6,�쓌,4,56,,
2017/8/3,14:00:00,9,��쐼,1.9,18.1,83,0,0.71,8,��,4.4,46,,
2017/8/3,15:00:00,7,��쓌,2.9,17,86.1,0,0.55,6,�쓌,5.9,5,,
2017/8/3,16:00:00,7,��쓌,2.6,16.4,89.9,0,0.26,6,�쓌,4.8,9,,
2017/8/3,17:00:00,7,��쓌,2,16.5,89.6,0,0.15,6,�쓌,4,14,,
2017/8/3,18:00:00,7,��쓌,1.9,16.1,90.5,0,0.06,7,��쓌,3.9,10,,
2017/8/3,19:00:00,8,��,1,15.8,91.9,0,0.01,8,��,3.2,1,,
2017/8/3,20:00:00,16,�É�,0.1,15.8,92.6,0,0,8,��,2.5,33,,
2017/8/3,21:00:00,16,�É�,0,15.7,92.9,0,0,7,��쓌,2.2,6,,
2017/8/3,22:00:00,7,��쓌,0.9,15.6,94,0,0,8,��,2,50,,
2017/8/3,23:00:00,16,�É�,0.1,15.5,95.4,0,0,6,�쓌,2,58,,
2017/8/3,0:00:00,10,�쐼,0.9,15.4,94.9,0,0,9,��쐼,2.5,56,,
2017/8/4,1:00:00,16,�É�,0,15.4,95.2,0,0,9,��쐼,1.6,4,,
2017/8/4,2:00:00,16,�É�,0,15.2,96.4,0,0,9,��쐼,2.2,41,,
2017/8/4,3:00:00,16,�É�,0,15.1,97.7,0,0,8,��,2.2,10,,
2017/8/4,4:00:00,16,�É�,0,14.8,99.2,0,0,8,��,1.5,59,,
2017/8/4,5:00:00,8,��,0.7,14.9,99.5,0,0.01,9,��쐼,2.3,58,,
2017/8/4,6:00:00,8,��,1.7,15.1,99.7,0,0.04,9,��쐼,3,57,,
2017/8/4,7:00:00,8,��,1.6,15.4,99.3,0,0.1,8,��,2.9,51,,
2017/8/4,8:00:00,9,��쐼,1.2,16,97,0,0.15,8,��,3.6,30,,
2017/8/4,9:00:00,8,��,2,16.5,93.6,0,0.25,8,��,3.9,45,,
2017/8/4,10:00:00,8,��,2.9,17.3,90.3,0,0.33,8,��,4.7,52,,
2017/8/4,11:00:00,7,��쓌,3.2,17.6,87.3,0,0.5,7,��쓌,4.9,51,,
2017/8/4,12:00:00,8,��,3.1,17.4,86,0,0.55,7,��쓌,5.4,28,,
2017/8/4,13:00:00,7,��쓌,3.2,17.3,85.1,0,0.55,7,��쓌,5.6,43,,
2017/8/4,14:00:00,7,��쓌,2.8,17.5,85,0,0.49,7,��쓌,5.5,14,,
2017/8/4,15:00:00,7,��쓌,2.5,17.9,88.9,0,0.39,6,�쓌,4.7,9,,
2017/8/4,16:00:00,8,��,2.1,17.3,88.3,0,0.29,8,��,4.3,18,,
2017/8/4,17:00:00,8,��,2.5,16.7,92,0,0.16,8,��,4.4,38,,
2017/8/4,18:00:00,8,��,2,16.5,93.3,0,0.03,7,��쓌,4.2,45,,
2017/8/4,19:00:00,16,�É�,0.2,16.2,94.6,0,0.01,7,��쓌,3,9,,
2017/8/4,20:00:00,16,�É�,0.1,16.2,95.1,0,0,9,��쐼,2.1,52,,
2017/8/4,21:00:00,10,�쐼,1,16,95.7,0,0,7,��쓌,2.4,32,,
2017/8/4,22:00:00,8,��,0.8,15.8,96.2,0,0,7,��쓌,2.4,40,,
2017/8/4,23:00:00,16,�É�,0,15.8,96.3,0,0,9,��쐼,2.4,3,,
2017/8/4,0:00:00,16,�É�,0,15.9,97,0,0,8,��,1.5,3,,
2017/8/5,1:00:00,16,�É�,0,15.9,96.8,0,0,5,���쓌,1.7,15,,
2017/8/5,2:00:00,16,�É�,0,15.7,97.3,0,0,1,�k�k��,1.7,8,,
2017/8/5,3:00:00,16,�É�,0.2,15.7,97.6,0,0,13,���k��,1.6,50,,
2017/8/5,4:00:00,16,�É�,0,15.7,97.9,0,0,16,�É�,0,0,,
2017/8/5,5:00:00,14,�k��,0.5,15.6,97.9,0,0.01,15,�k�k��,1.6,55,,
2017/8/5,6:00:00,16,�É�,0,15.9,98.7,0,0.04,14,�k��,1.5,17,,
2017/8/5,7:00:00,16,�É�,0,16.5,95.9,0,0.1,10,�쐼,1.8,12,,
2017/8/5,8:00:00,16,�É�,0,17.6,90.6,0,0.22,15,�k�k��,1.2,21,,
2017/8/5,9:00:00,7,��쓌,0.3,17.1,92.7,0,0.25,6,�쓌,2.5,37,,
2017/8/5,10:00:00,5,���쓌,1.6,19.6,90,0,0.46,4,��,2.5,56,,
2017/8/5,11:00:00,6,�쓌,2.4,18.9,88.3,0,0.5,6,�쓌,3.8,54,,
2017/8/5,12:00:00,6,�쓌,2.3,19.8,84.5,0,0.72,5,���쓌,4.1,32,,
2017/8/5,13:00:00,5,���쓌,3.2,19.9,85,0,0.94,5,���쓌,4.6,57,,
2017/8/5,14:00:00,5,���쓌,3.1,20.6,81.3,0,0.85,5,���쓌,5.1,48,,
2017/8/5,15:00:00,6,�쓌,2.3,20,87.1,0,0.7,5,���쓌,4.4,23,,
2017/8/5,16:00:00,6,�쓌,2.1,18.7,89.9,0,0.45,5,���쓌,4.3,8,,
2017/8/5,17:00:00,6,�쓌,1.3,18.1,92.2,0,0.18,5,���쓌,3.7,7,,
2017/8/5,18:00:00,5,���쓌,0.3,17.8,95.2,0,0.05,4,��,2.5,42,,
2017/8/5,19:00:00,16,�É�,0,17.6,96.8,0,0.01,4,��,2.5,30,,
2017/8/5,20:00:00,2,�k��,1.2,17.5,98.5,0,0,1,�k�k��,2.5,49,,
2017/8/5,21:00:00,3,���k��,1.4,17.4,99.1,0,0,2,�k��,2.6,32,,
2017/8/5,22:00:00,4,��,1.2,17.2,99.3,0,0,3,���k��,2.2,48,,
2017/8/5,23:00:00,16,�É�,0,17,99.5,0,0,1,�k�k��,1.5,32,,
2017/8/5,0:00:00,16,�É�,0,16.7,99.6,0,0,16,�É�,0,0,,
2017/8/6,1:00:00,16,�É�,0,16.6,99.8,0,0,16,�É�,0,0,,
2017/8/6,2:00:00,16,�É�,0,16.6,99.9,0,0,4,��,1.9,21,,
2017/8/6,3:00:00,16,�É�,0.1,16.5,100,0,0,14,�k��,1.5,48,,
2017/8/6,4:00:00,16,�É�,0,16.3,100,0,0,13,���k��,1.1,47,,
2017/8/6,5:00:00,16,�É�,0,16.2,100,0,0.01,13,���k��,1.5,47,,
2017/8/6,6:00:00,3,���k��,1.1,16.6,99.9,0,0.08,2,�k��,2.2,57,,
2017/8/6,7:00:00,2,�k��,1.5,16.9,98.5,0,0.12,1,�k�k��,2.3,54,,
2017/8/6,8:00:00,4,��,1,18.5,93.8,0,0.29,1,�k�k��,3.1,49,,
2017/8/6,9:00:00,6,�쓌,1.4,20,87.8,0,0.53,6,�쓌,2.6,57,,
2017/8/6,10:00:00,6,�쓌,1.9,21.1,84.6,0,0.85,6,�쓌,3.5,12,,
2017/8/6,11:00:00,6,�쓌,2.6,21.1,84.7,0,0.87,5,���쓌,4.2,40,,
2017/8/6,12:00:00,5,���쓌,2.6,20.9,83.2,0,1.01,6,�쓌,4.8,30,,
2017/8/6,13:00:00,6,�쓌,2.3,20.5,84.8,0,0.96,6,�쓌,5,44,,
2017/8/6,14:00:00,7,��쓌,2.6,20.1,85.3,0,0.85,7,��쓌,4.2,47,,
2017/8/6,15:00:00,7,��쓌,2.7,19.3,85.9,0,0.73,7,��쓌,4.7,59,,
2017/8/6,16:00:00,6,�쓌,1.7,19.2,91.7,0,0.53,7,��쓌,4.1,1,,
2017/8/6,17:00:00,6,�쓌,1.1,18.3,94.3,0,0.32,7,��쓌,2.6,15,,
2017/8/6,18:00:00,6,�쓌,0.4,17.1,96.2,0,0.11,8,��,2,11,,
2017/8/6,19:00:00,16,�É�,0,16.5,99,0,0.02,6,�쓌,1.9,27,,
2017/8/6,20:00:00,5,���쓌,1.4,16.6,99.7,0,0,4,��,1.9,59,,
2017/8/6,21:00:00,16,�É�,0,16.7,99.7,0,0,3,���k��,2,1,,
2017/8/6,22:00:00,16,�É�,0,16.9,99.4,0,0,16,�É�,0,0,,
2017/8/6,23:00:00,16,�É�,0.1,17.1,99.2,0,0,4,��,1.5,48,,
2017/8/6,0:00:00,16,�É�,0,17.2,99,0,0,5,���쓌,1.3,0,,
2017/8/7,1:00:00,16,�É�,0,17.3,98.8,0,0,16,�É�,0,0,,
2017/8/7,2:00:00,16,�É�,0,17.5,99,0,0,16,�É�,0,0,,
2017/8/7,3:00:00,5,���쓌,2,17.1,98.7,0,0,4,��,2.8,35,,
2017/8/7,4:00:00,16,�É�,0,17.1,98.2,0,0,5,���쓌,2.3,7,,
2017/8/7,5:00:00,2,�k��,0.4,17.1,98.6,0,0.01,1,�k�k��,2.3,43,,
2017/8/7,6:00:00,1,�k�k��,0.5,17.3,98.3,0,0.03,2,�k��,1.9,32,,
2017/8/7,7:00:00,4,��,0.4,17.6,97.6,0,0.07,4,��,2.5,42,,
2017/8/7,8:00:00,16,�É�,0,17.5,98.6,0,0.15,5,���쓌,3,7,,
2017/8/7,9:00:00,16,�É�,0.1,19.9,88.6,0,0.44,5,���쓌,1.6,52,,
2017/8/7,10:00:00,7,��쓌,3,19.4,83.1,0,0.83,6,�쓌,5,52,,
2017/8/7,11:00:00,7,��쓌,2.5,18.3,89.7,0,0.47,6,�쓌,5.2,5,,
2017/8/7,12:00:00,7,��쓌,2.9,18.6,90.3,0,0.46,6,�쓌,5,26,,
2017/8/7,13:00:00,8,��,3.2,18.7,86.5,0,0.5,6,�쓌,6.3,46,,
2017/8/7,14:00:00,7,��쓌,2.8,19.7,79.2,0,0.68,8,��,5.5,14,,
2017/8/7,15:00:00,7,��쓌,3.1,20.2,78.7,0,0.68,7,��쓌,5.4,26,,
2017/8/7,16:00:00,8,��,3,19.6,79.1,0,0.56,7,��쓌,5.6,53,,
2017/8/7,17:00:00,8,��,2.4,18.9,86,0,0.37,7,��쓌,5,24,,
2017/8/7,18:00:00,8,��,1.5,17.8,92,0,0.16,8,��,4.5,15,,
2017/8/7,19:00:00,16,�É�,0,15.9,97.3,0,0.02,9,��쐼,2.9,1,,
2017/8/7,20:00:00,13,���k��,1.9,16.4,98.2,0,0,12,��,3.1,26,,
2017/8/7,21:00:00,16,�É�,0,17.1,97,0,0,13,���k��,2.9,4,,
2017/8/7,22:00:00,2,�k��,0.6,16.6,97.3,0,0,2,�k��,1.4,54,,
2017/8/7,23:00:00,16,�É�,0,16.9,98.1,0,0,3,���k��,1.8,23,,
2017/8/7,0:00:00,1,�k�k��,0.3,16.7,98.4,0,0,2,�k��,1.5,55,,
2017/8/8,1:00:00,16,�É�,0,17,98.7,0,0,16,�É�,0,0,,
2017/8/8,2:00:00,16,�É�,0,17.2,98.8,0,0,16,�É�,0,0,,
2017/8/8,3:00:00,16,�É�,0,17.1,98.7,0,0,16,�É�,0,0,,
2017/8/8,4:00:00,16,�É�,0,17.1,98.5,0,0,3,���k��,1.8,31,,
2017/8/8,5:00:00,16,�É�,0,17.2,98.4,0,0.01,3,���k��,2,39,,
2017/8/8,6:00:00,4,��,1.6,17.5,92.6,0,0.05,4,��,2.6,59,,
2017/8/8,7:00:00,3,���k��,2.5,17.6,93,0,0.12,3,���k��,4.7,30,,
2017/8/8,8:00:00,3,���k��,2.6,17.6,94.5,0,0.16,2,�k��,4.7,4,,
2017/8/8,9:00:00,3,���k��,2.6,17.3,95.5,0,0.17,4,��,4.6,43,,
2017/8/8,10:00:00,4,��,3.7,17.2,96.5,0,0.24,4,��,5.3,53,,
2017/8/8,11:00:00,5,���쓌,2.8,17.5,96.9,0,0.32,5,���쓌,4.6,42,,
2017/8/8,12:00:00,4,��,3.2,17.8,90.8,0,0.36,4,��,4.9,53,,
2017/8/8,13:00:00,4,��,2,18.6,85.6,0,0.39,5,���쓌,4.6,24,,
2017/8/8,14:00:00,5,���쓌,2.3,18.2,87.9,0,0.37,4,��,4.2,22,,
2017/8/8,15:00:00,5,���쓌,0.3,18.7,86.5,0,0.28,5,���쓌,3.7,1,,
2017/8/8,16:00:00,7,��쓌,0.6,18.7,85.5,0,0.25,6,�쓌,2.6,23,,
2017/8/8,17:00:00,16,�É�,0,18.1,86.8,0,0.14,10,�쐼,2.2,42,,
2017/8/8,18:00:00,11,���쐼,1.2,18.1,89.5,0,0.05,11,���쐼,2.7,45,,
2017/8/8,19:00:00,5,���쓌,1.7,16.8,93.7,0,0.01,5,���쓌,2.3,50,,
2017/8/8,20:00:00,16,�É�,0,16.7,96.2,0,0,5,���쓌,2.2,0,,
2017/8/8,21:00:00,16,�É�,0,17.1,95.2,0,0,16,�É�,0,0,,
2017/8/8,22:00:00,16,�É�,0,16.9,95.9,0,0,2,�k��,1.4,59,,
2017/8/8,23:00:00,13,���k��,0.5,16.4,96.3,0,0,16,�k,1.9,58,,
2017/8/8,0:00:00,16,�É�,0,16.7,95.7,0,0,13,���k��,2.4,1,,
2017/8/9,1:00:00,14,�k��,1.5,16.8,95.3,0,0,13,���k��,2.7,16,,
2017/8/9,2:00:00,14,�k��,0.3,16.6,96,0,0,13,���k��,2.1,1,,
2017/8/9,3:00:00,16,�É�,0.1,16.9,95.5,0,0,14,�k��,2,0,,
2017/8/9,4:00:00,16,�É�,0,16.8,96.6,0,0,15,�k�k��,1.6,4,,
2017/8/9,5:00:00,16,�É�,0.1,17,94.8,0,0.01,2,�k��,2.9,25,,
2017/8/9,6:00:00,1,�k�k��,1.4,17.4,94.3,0,0.03,1,�k�k��,2.9,46,,
2017/8/9,7:00:00,3,���k��,1.8,17.8,93.3,0,0.05,3,���k��,3.3,58,,
2017/8/9,8:00:00,3,���k��,2.9,18.3,91.8,0,0.15,4,��,4.9,53,,
2017/8/9,9:00:00,3,���k��,3.4,18,91.5,0,0.17,3,���k��,5.6,52,,
2017/8/9,10:00:00,3,���k��,2.1,18.3,91.1,0,0.17,3,���k��,5,3,,
2017/8/9,11:00:00,4,��,0.5,20.2,90.7,0,0.27,4,��,3.2,1,,
2017/8/9,12:00:00,4,��,2.1,19.9,86,0,0.28,4,��,3.8,36,,
2017/8/9,13:00:00,4,��,1.9,19.3,87.9,0,0.16,3,���k��,3.1,44,,
2017/8/9,14:00:00,3,���k��,2,19.2,89.8,0,0.18,2,�k��,3.7,24,,
2017/8/9,15:00:00,1,�k�k��,0.9,19,89.5,0,0.19,3,���k��,2.7,9,,
2017/8/9,16:00:00,2,�k��,0.3,18.7,93.1,0,0.11,1,�k�k��,2.1,37,,
2017/8/9,17:00:00,16,�É�,0,18.8,94.2,0,0.06,3,���k��,0.9,47,,
2017/8/9,18:00:00,16,�É�,0,18.9,93.2,0,0.05,16,�É�,0,0,,
2017/8/9,19:00:00,16,�É�,0,18.5,94.7,0,0.01,16,�k,1.3,12,,
2017/8/9,20:00:00,16,�É�,0,18.3,96.7,0,0,16,�É�,0,0,,
2017/8/9,21:00:00,12,��,0.9,18.3,96.4,0,0,12,��,2.3,54,,
2017/8/9,22:00:00,14,�k��,1.9,17.8,94.1,0,0,13,���k��,3.7,57,,
2017/8/9,23:00:00,13,���k��,2.2,17.4,96.2,0,0,14,�k��,4.7,2,,
2017/8/9,0:00:00,13,���k��,2,17.4,96.1,0,0,13,���k��,3.7,33,,
2017/8/10,1:00:00,15,�k�k��,1.5,17.4,95.4,0,0,14,�k��,4.9,38,,
2017/8/10,2:00:00,4,��,0.8,17.1,96.9,0,0,15,�k�k��,3,10,,
2017/8/10,3:00:00,16,�É�,0,16.9,98.6,1,0,4,��,0.9,0,,
2017/8/10,4:00:00,16,�É�,0,16.7,99.2,2.5,0,1,�k�k��,2.2,48,,
2017/8/10,5:00:00,3,���k��,2.5,16.3,99.3,1,0,3,���k��,4,57,,
2017/8/10,6:00:00,3,���k��,3.2,15.9,99.4,2,0.02,3,���k��,5.2,13,,
2017/8/10,7:00:00,3,���k��,2.5,15.8,99.2,0,0.07,3,���k��,4.8,38,,
2017/8/10,8:00:00,4,��,2.4,16,98.5,0,0.11,3,���k��,4.9,19,,
2017/8/10,9:00:00,4,��,3.6,16,97.1,0,0.18,4,��,5.9,34,,
2017/8/10,10:00:00,4,��,3.3,16.3,95.5,0,0.28,3,���k��,4.7,6,,
2017/8/10,11:00:00,4,��,3.3,16.4,97.2,0,0.25,4,��,4.9,41,,
2017/8/10,12:00:00,4,��,2.7,16.5,92.9,0.5,0.32,4,��,4.6,0,,
2017/8/10,13:00:00,4,��,2.3,16.7,90.5,0,0.28,4,��,4,58,,
2017/8/10,14:00:00,4,��,1.7,16.9,94,0,0.3,4,��,4.7,21,,
2017/8/10,15:00:00,5,���쓌,1.6,16.2,94.3,0,0.18,4,��,3.7,6,,
2017/8/10,16:00:00,6,�쓌,0.9,16.2,91.2,0,0.17,5,���쓌,2.8,6,,
2017/8/10,17:00:00,3,���k��,1.1,16.3,89.3,0,0.15,4,��,2.4,32,,
2017/8/10,18:00:00,4,��,1.4,15.5,93.5,0,0.05,4,��,3.3,11,,
2017/8/10,19:00:00,3,���k��,1.1,14.9,97.9,0,0.01,4,��,2.6,5,,
2017/8/10,20:00:00,15,�k�k��,0.7,14.9,98.9,0,0,1,�k�k��,1.7,48,,
2017/8/10,21:00:00,14,�k��,1.7,14.8,98.2,0,0,13,���k��,2.9,55,,
2017/8/10,22:00:00,14,�k��,1.8,14.9,97.6,0,0,13,���k��,3.5,36,,
2017/8/10,23:00:00,14,�k��,1.2,15,96.5,0,0,14,�k��,3.4,25,,
2017/8/10,0:00:00,13,���k��,2,14.9,96.8,0,0,13,���k��,3.4,58,,
2017/8/11,1:00:00,14,�k��,2.6,15,96.1,0,0,13,���k��,4.5,58,,
2017/8/11,2:00:00,14,�k��,2.5,14.9,96.2,0,0,13,���k��,4.5,21,,
2017/8/11,3:00:00,14,�k��,2.5,14.9,95.8,0,0,13,���k��,4.6,39,,
2017/8/11,4:00:00,14,�k��,2.2,15.1,95,0,0,14,�k��,4.7,19,,
2017/8/11,5:00:00,14,�k��,2.3,15.5,94.3,0,0.01,12,��,5.4,35,,
2017/8/11,6:00:00,14,�k��,2.4,15.9,92.8,0,0.03,14,�k��,4.9,58,,
2017/8/11,7:00:00,14,�k��,3.2,16,94,0,0.07,14,�k��,7.4,34,,
2017/8/11,8:00:00,14,�k��,3.4,16.1,97.7,0,0.11,14,�k��,6.5,16,,
2017/8/11,9:00:00,14,�k��,2.6,16.7,97.8,0,0.16,13,���k��,6.5,43,,
2017/8/11,10:00:00,15,�k�k��,1.5,17.4,97.3,0,0.25,14,�k��,6,19,,
2017/8/11,11:00:00,2,�k��,1.7,17.6,97.8,0.5,0.24,2,�k��,4.7,41,,
2017/8/11,12:00:00,2,�k��,4.3,16.9,96.7,1,0.28,3,���k��,8.7,21,,
2017/8/11,13:00:00,3,���k��,4.6,16.5,97.5,0,0.24,3,���k��,9.5,13,,
2017/8/11,14:00:00,3,���k��,4.7,16.2,97.7,1,0.21,3,���k��,8.7,15,,
2017/8/11,15:00:00,3,���k��,4,15.9,98,1,0.21,1,�k�k��,8.1,29,,
2017/8/11,16:00:00,3,���k��,4.3,15.5,98.3,1,0.12,4,��,8.3,6,,
2017/8/11,17:00:00,3,���k��,3.7,15,99,1,0.07,4,��,7.9,35,,
2017/8/11,18:00:00,3,���k��,2.9,14.7,99.2,0.5,0.02,3,���k��,8.1,12,,
2017/8/11,19:00:00,2,�k��,2.8,14.4,99.3,1,0,2,�k��,5.7,43,,
2017/8/11,20:00:00,2,�k��,2.5,14.1,99.2,1.5,0,2,�k��,6.1,35,,
2017/8/11,21:00:00,2,�k��,3.7,13.8,99.3,1,0,3,���k��,7.2,58,,
2017/8/11,22:00:00,2,�k��,2.6,13.7,99,0.5,0,3,���k��,6.7,7,,
2017/8/11,23:00:00,2,�k��,2.8,13.6,99,0,0,2,�k��,6.2,22,,
2017/8/11,0:00:00,1,�k�k��,1.4,13.3,99.3,0,0,1,�k�k��,5.1,11,,
2017/8/12,1:00:00,1,�k�k��,2.3,13.1,99.3,0,0,1,�k�k��,4.6,16,,
2017/8/12,2:00:00,1,�k�k��,2.1,13,99.3,0,0,1,�k�k��,4.4,7,,
2017/8/12,3:00:00,2,�k��,2,13,99.4,0,0,3,���k��,4.2,46,,
2017/8/12,4:00:00,1,�k�k��,1.8,13,97.9,0,0,2,�k��,4.5,21,,
2017/8/12,5:00:00,2,�k��,1.8,13,97.4,0,0.01,2,�k��,4.1,41,,
2017/8/12,6:00:00,3,���k��,3.1,13.4,94.6,0,0.03,4,��,6.7,14,,
2017/8/12,7:00:00,3,���k��,3.9,13.8,92.1,0,0.11,2,�k��,6.9,50,,
2017/8/12,8:00:00,3,���k��,4.1,14.1,90.9,0,0.2,3,���k��,6.8,58,,
2017/8/12,9:00:00,3,���k��,4.6,14.4,89.1,0,0.27,4,��,8,15,,
2017/8/12,10:00:00,3,���k��,4.5,14.2,90.8,0,0.25,3,���k��,7.4,12,,
2017/8/12,11:00:00,3,���k��,4,14.2,89.7,0,0.24,3,���k��,7.7,44,,
2017/8/12,12:00:00,3,���k��,4.2,14.6,89.1,0,0.19,2,�k��,7.1,48,,
2017/8/12,13:00:00,3,���k��,4,14.7,88.6,0,0.21,4,��,6.5,12,,
2017/8/12,14:00:00,3,���k��,4,14.7,88.9,0,0.18,3,���k��,6.4,51,,
2017/8/12,15:00:00,3,���k��,3.4,14.5,88.2,0,0.18,3,���k��,6.1,41,,
2017/8/12,16:00:00,3,���k��,3,14.7,88.3,0,0.15,3,���k��,5.5,14,,
2017/8/12,17:00:00,3,���k��,2.3,14.3,91.3,0,0.06,2,�k��,4,0,,
2017/8/12,18:00:00,3,���k��,0.7,13.8,95.9,0.5,0.02,2,�k��,2.4,2,,
2017/8/12,19:00:00,16,�É�,0,13.5,97.9,1,0,2,�k��,2.5,27,,
2017/8/12,20:00:00,14,�k��,0.6,13.5,98.7,0.5,0,14,�k��,2.4,47,,
2017/8/12,21:00:00,13,���k��,1.8,13.3,99.2,0,0,13,���k��,2.9,49,,
2017/8/12,22:00:00,14,�k��,0.9,13.4,99.6,0.5,0,14,�k��,3.4,44,,
2017/8/12,23:00:00,14,�k��,1.9,13.3,99.7,1,0,3,���k��,3.4,59,,
2017/8/12,0:00:00,14,�k��,1.5,13.4,99.6,0.5,0,14,�k��,4,17,,
2017/8/13,1:00:00,14,�k��,0.6,13.5,99.7,0.5,0,14,�k��,2.4,46,,
2017/8/13,2:00:00,13,���k��,2.2,13.4,99.8,0,0,14,�k��,3.2,50,,
2017/8/13,3:00:00,14,�k��,1.4,13.5,99.9,0.5,0,13,���k��,3.5,11,,
2017/8/13,4:00:00,13,���k��,2.1,13.6,99.8,0,0,13,���k��,4.3,56,,
2017/8/13,5:00:00,14,�k��,1.6,13.6,99.7,0,0,4,��,3.8,57,,
2017/8/13,6:00:00,1,�k�k��,0.9,13.7,99.7,0,0.02,13,���k��,3,2,,
2017/8/13,7:00:00,15,�k�k��,0.9,14.2,99.7,0.5,0.05,14,�k��,2.4,38,,
2017/8/13,8:00:00,1,�k�k��,1.1,14.7,99.3,0,0.11,1,�k�k��,2.8,45,,
2017/8/13,9:00:00,2,�k��,1.5,15.3,98.7,0,0.15,16,�k,2.9,18,,
2017/8/13,10:00:00,2,�k��,1.2,15.5,98,0,0.13,2,�k��,3.1,42,,
2017/8/13,11:00:00,2,�k��,2.5,15.9,96.9,0,0.15,3,���k��,4.2,42,,
2017/8/13,12:00:00,3,���k��,3.5,16.2,96.6,0,0.2,3,���k��,5.7,20,,
2017/8/13,13:00:00,3,���k��,3.8,16.1,94.8,0,0.23,3,���k��,6.5,51,,
2017/8/13,14:00:00,3,���k��,3.8,16.5,92.9,0,0.23,4,��,6,10,,
2017/8/13,15:00:00,3,���k��,3.2,16.9,92.6,0,0.32,3,���k��,7.3,24,,
2017/8/13,16:00:00,3,���k��,3.4,16.6,93.2,0,0.2,4,��,6.6,54,,
2017/8/13,17:00:00,3,���k��,3.5,16.1,94.3,0,0.12,3,���k��,6,1,,
2017/8/13,18:00:00,3,���k��,2.5,15.7,96.7,0,0.04,4,��,4.5,3,,
2017/8/13,19:00:00,3,���k��,2.2,15.7,97.3,0,0.01,3,���k��,3.9,52,,
2017/8/13,20:00:00,3,���k��,2.3,15.5,98.9,0,0,3,���k��,4.1,52,,
2017/8/13,21:00:00,3,���k��,1.9,15.3,99.4,0,0,2,�k��,3.8,33,,
2017/8/13,22:00:00,3,���k��,2.4,15.3,99.5,0,0,3,���k��,4.5,55,,
2017/8/13,23:00:00,3,���k��,2.3,15.3,99.5,0,0,2,�k��,3.7,41,,
2017/8/13,0:00:00,3,���k��,1.9,15.3,99.6,0,0,3,���k��,3.9,8,,
2017/8/14,1:00:00,3,���k��,2.2,15.1,99.9,0,0,3,���k��,3.9,31,,
2017/8/14,2:00:00,1,�k�k��,0.4,15.1,99.8,0,0,2,�k��,2.5,13,,
2017/8/14,3:00:00,16,�É�,0,15.2,99.7,0,0,1,�k�k��,2.5,2,,
2017/8/14,4:00:00,2,�k��,1,15.2,99.5,0,0,2,�k��,1.9,44,,
2017/8/14,5:00:00,16,�É�,0,15.4,99.2,0,0.01,2,�k��,1.5,0,,
2017/8/14,6:00:00,3,���k��,1.7,16,98.2,0,0.07,3,���k��,2.4,52,,
2017/8/14,7:00:00,2,�k��,2.2,16.1,96.9,0,0.09,1,�k�k��,3.6,56,,
2017/8/14,8:00:00,2,�k��,1.7,16.7,95.2,0,0.14,2,�k��,3.4,0,,
2017/8/14,9:00:00,4,��,2.2,16.9,98.4,0,0.17,5,���쓌,3,54,,
2017/8/14,10:00:00,4,��,3.1,17.5,97.6,0,0.32,4,��,4.6,40,,
2017/8/14,11:00:00,4,��,3.7,18.6,87.8,0,0.51,4,��,5.2,25,,
2017/8/14,12:00:00,4,��,3.9,18.8,85.4,0,0.75,4,��,6.3,57,,
2017/8/14,13:00:00,4,��,3.3,19,88.4,0,0.56,4,��,6.1,10,,
2017/8/14,14:00:00,4,��,4,18.4,88.7,0,0.51,4,��,5.7,18,,
2017/8/14,15:00:00,4,��,3.2,17.9,92.6,0,0.28,4,��,5.8,19,,
2017/8/14,16:00:00,4,��,2.7,17.5,94.1,0,0.2,3,���k��,5.2,12,,
2017/8/14,17:00:00,3,���k��,1.9,17.2,96,0,0.14,4,��,3.3,41,,
2017/8/14,18:00:00,3,���k��,2.2,16.4,97.9,0,0.06,3,���k��,3.8,26,,
2017/8/14,19:00:00,2,�k��,0.4,16.3,99.1,0,0,4,��,2.8,3,,
2017/8/14,20:00:00,4,��,1.5,16.1,98.9,0,0,5,���쓌,3.4,59,,
2017/8/14,21:00:00,2,�k��,0.4,15.8,99.5,0,0,3,���k��,3.1,17,,
2017/8/14,22:00:00,16,�É�,0.2,15.9,99.8,0,0,2,�k��,1.8,57,,
2017/8/14,23:00:00,3,���k��,2,15.9,99.8,0,0,3,���k��,3.1,52,,
2017/8/14,0:00:00,3,���k��,2.6,15.6,99.9,0,0,3,���k��,4.7,46,,
2017/8/15,1:00:00,2,�k��,0.8,15.5,100,0,0,3,���k��,4.2,3,,
2017/8/15,2:00:00,3,���k��,1.7,15.5,99.9,0,0,3,���k��,2.7,55,,
2017/8/15,3:00:00,16,�É�,0,15.6,100,0,0,2,�k��,2.2,14,,
2017/8/15,4:00:00,16,�É�,0,15.7,100,0,0,16,�É�,0,0,,
2017/8/15,5:00:00,3,���k��,2,15.6,99.7,0,0,2,�k��,3.3,43,,
2017/8/15,6:00:00,3,���k��,3.2,15.6,99.8,0,0.02,4,��,4.8,54,,
2017/8/15,7:00:00,3,���k��,3.3,15.6,99.9,0,0.04,4,��,5.1,2,,
2017/8/15,8:00:00,3,���k��,2.7,15.9,99.8,0,0.08,2,�k��,5,0,,
2017/8/15,9:00:00,3,���k��,2.2,16.5,97.4,0.5,0.15,3,���k��,4.9,35,,
2017/8/15,10:00:00,4,��,3.7,17.7,92.3,0,0.24,4,��,5.4,55,,
2017/8/15,11:00:00,3,���k��,3.4,18.6,86.9,0,0.42,3,���k��,5.5,44,,
2017/8/15,12:00:00,4,��,2.4,18.6,87.8,0,0.46,4,��,5.5,12,,
2017/8/15,13:00:00,4,��,2.9,19.3,81,0,0.48,4,��,5.4,24,,
2017/8/15,14:00:00,5,���쓌,1.9,19.3,88.2,0,0.5,3,���k��,5.1,6,,
2017/8/15,15:00:00,4,��,2.5,18,87.1,0,0.38,3,���k��,4.1,49,,
2017/8/15,16:00:00,5,���쓌,1.5,17.2,90.9,0,0.23,5,���쓌,3.8,6,,
2017/8/15,17:00:00,4,��,1.8,16.8,92.4,0,0.09,4,��,3.1,49,,
2017/8/15,18:00:00,16,�É�,0,16.7,94,0,0.03,5,���쓌,2.7,8,,
2017/8/15,19:00:00,16,�É�,0.1,16.5,94.9,0,0.01,5,���쓌,1.6,58,,
2017/8/15,20:00:00,16,�É�,0,16.4,97,0,0,4,��,2,4,,
2017/8/15,21:00:00,16,�É�,0.2,16.3,96.5,0,0,5,���쓌,2.4,32,,
2017/8/15,22:00:00,4,��,1.3,15.7,98.9,0,0,4,��,3.5,19,,
2017/8/15,23:00:00,4,��,1.4,15.6,99.4,0,0,4,��,3.2,7,,
2017/8/15,0:00:00,3,���k��,2,15.4,99.3,0,0,4,��,4.3,38,,
2017/8/16,1:00:00,3,���k��,1.5,15.4,98.4,0,0,2,�k��,3.2,21,,
2017/8/16,2:00:00,3,���k��,2.2,15.1,97.7,0,0,3,���k��,3.6,31,,
2017/8/16,3:00:00,3,���k��,2.5,15,98.7,0,0,4,��,4.5,59,,
2017/8/16,4:00:00,3,���k��,3.4,14.6,99.4,0,0,3,���k��,5.2,57,,
2017/8/16,5:00:00,4,��,1.7,14.4,98.3,0,0.01,3,���k��,5.5,13,,
2017/8/16,6:00:00,4,��,3,15.3,96.9,0,0.06,5,���쓌,4.4,54,,
2017/8/16,7:00:00,4,��,3.1,15.1,92,0,0.11,5,���쓌,6.3,15,,
2017/8/16,8:00:00,4,��,3.8,15.8,88.3,0,0.23,4,��,5.5,54,,
2017/8/16,9:00:00,4,��,3.6,15.8,88.8,0,0.32,3,���k��,6,13,,
2017/8/16,10:00:00,4,��,3.3,16,86,0,0.36,4,��,5.9,13,,
2017/8/16,11:00:00,4,��,3.5,16.3,82,0,0.45,4,��,5.3,10,,
2017/8/16,12:00:00,4,��,2.8,16.4,83.1,0,0.5,3,���k��,5.2,10,,
2017/8/16,13:00:00,6,�쓌,2.5,18,81.4,0,0.75,5,���쓌,4.6,56,,
2017/8/16,14:00:00,7,��쓌,1.2,17.9,82.7,0,0.79,6,�쓌,4.2,0,,
2017/8/16,15:00:00,4,��,1.5,18.7,73.8,0,0.68,4,��,3.2,43,,
2017/8/16,16:00:00,6,�쓌,0.5,17.5,78.7,0,0.39,7,��쓌,2.7,26,,
2017/8/16,17:00:00,9,��쐼,0.4,16.6,82,0,0.18,10,�쐼,2.3,51,,
2017/8/16,18:00:00,7,��쓌,0.8,15.8,86.7,0,0.1,7,��쓌,1.8,51,,
2017/8/16,19:00:00,6,�쓌,0.4,13.8,91.6,0,0.01,7,��쓌,2.3,39,,
2017/8/16,20:00:00,16,�É�,0,12.3,99.2,0,0,1,�k�k��,1.6,33,,
2017/8/16,21:00:00,12,��,0.6,10.8,99.5,0,0,13,���k��,1.7,59,,
2017/8/16,22:00:00,16,�É�,0,11.3,99.9,0,0,12,��,2,9,,
2017/8/16,23:00:00,14,�k��,0.7,12.6,100,0,0,13,���k��,2.3,32,,
2017/8/16,0:00:00,16,�É�,0,13,99.9,0,0,12,��,2.1,43,,
2017/8/17,1:00:00,16,�É�,0,13.3,99.7,0,0,13,���k��,1.5,37,,
2017/8/17,2:00:00,16,�É�,0,13.6,99.3,0,0,14,�k��,0.9,48,,
2017/8/17,3:00:00,15,�k�k��,0.3,14.2,98,0,0,14,�k��,2.4,49,,
2017/8/17,4:00:00,13,���k��,1.7,14.2,98.4,0,0,14,�k��,2.6,57,,
2017/8/17,5:00:00,16,�É�,0,14.6,98.3,0,0.01,13,���k��,4.1,3,,
2017/8/17,6:00:00,16,�É�,0,15,96.7,0,0.05,16,�k,0.9,0,,
2017/8/17,7:00:00,14,�k��,0.9,16,93.9,0,0.09,16,�k,2.5,50,,
2017/8/17,8:00:00,15,�k�k��,1.3,16.5,91.7,0,0.12,13,���k��,3,34,,
2017/8/17,9:00:00,1,�k�k��,1.9,16.4,97.3,0,0.15,2,�k��,3,42,,